Temp
26 27 24 24 23 24 24 24 25 25 24 23 24 23 25 25 21 20 20 20 20 20 20 18 18 17 17 17 16 15 15 14 14 14 14 14 14 15 15 15 15 15 15 16
27 23 22 23 23 23 24 24 24 24 24 23 23 23 25 21 20 19 19 19 18 19 19 18 17 17 17 16 16 15 14 14 14 14 13 13 13 13 14 14 15 15 15 15
24 22 22 22 22 22 24 21 20 20 21 23 24 24 20 19 18 18 18 19 19 18 17 18 17 17 17 16 15 14 14 13 13 13 13 13 12 13 13 13 13 14 13 14
22 22 21 22 21 20 23 20 19 19 20 21 23 21 24 19 19 18 19 18 18 17 18 18 17 17 16 16 15 14 13 13 13 12 12 12 12 12 12 12 12 12 13 13
20 20 20 20 18 19 20 19 19 20 20 21 22 20 23 20 20 19 18 17 17 17 17 17 17 16 16 16 15 14 13 13 12 12 11 11 11 11 11 11 11 11 12 12
19 19 18 18 19 18 19 20 21 23 21 21 20 19 21 21 17 17 17 17 17 17 17 17 16 15 15 15 14 14 13 13 13 12 12 11 11 10 10 10 11 11 11 11
22 19 18 18 19 20 19 18 20 22 22 23 22 18 20 17 16 16 16 16 16 16 16 16 15 15 14 14 14 14 13 13 13 12 12 11 11 10 10 10 11 10 10 11
20 21 18 17 17 16 18 17 17 15 18 18 18 17 19 17 17 17 16 16 16 15 15 15 14 14 14 14 14 14 13 13 13 12 12 11 11 11 11 10 10 10 10 10
18 20 18 17 16 16 17 17 16 15 16 15 17 20 21 18 17 16 15 15 15 15 15 14 14 14 13 13 13 13 13 13 13 12 12 11 11 11 11 10 10 10 9 9
16 15 17 16 16 16 15 15 15 16 13 13 16 16 17 16 15 15 15 15 15 15 14 14 14 14 13 13 13 13 13 13 12 12 12 12 11 11 11 10 10 10 9 9
15 14 17 17 18 15 15 15 14 14 14 12 13 14 16 15 15 14 14 14 14 14 14 14 14 13 13 13 13 12 12 12 12 11 11 11 11 11 10 10 10 9 8 9
14 13 13 16 16 14 14 13 13 10 10 11 10 10 15 15 15 14 14 14 14 14 14 14 14 13 13 13 12 12 12 12 11 11 11 11 10 10 10 10 9 9 8 9
13 15 13 17 14 14 13 12 12 11 10 9 8 10 15 14 14 14 13 13 13 14 14 14 14 13 13 12 12 12 12 11 11 11 11 10 10 10 9 9 9 8 8 9
11 12 12 12 12 12 10 10 11 10 9 9 10 10 12 12 12 12 13 13 13 13 13 13 13 13 12 12 12 11 11 11 10 10 10 10 10 9 9 9 8 8 8 8
11 9 12 12 11 11 11 10 11 9 10 9 10 10 10 8 10 11 12 12 12 12 13 13 12 12 12 12 11 11 11 10 10 10 10 10 9 9 9 9 8 8 8 8
11 9 10 9 12 12 10 11 12 10 10 10 10 9 8 9 10 11 11 10 11 12 13 12 12 12 11 11 11 10 10 10 10 10 10 10 9 9 9 8 8 8 8 8
9 9 8 9 10 10 11 10 9 9 9 9 7 5 7 7 9 10 10 9 11 11 11 11 11 11 11 10 10 10 10 10 10 10 9 10 9 9 8 8 8 8 8 8
8 8 7 7 9 8 11 10 9 8 9 9 9 6 8 9 9 10 6 8 10 11 11 11 11 11 10 10 10 10 10 9 9 9 9 9 9 8 7 7 6 7 7 7
8 8 6 5 7 8 10 9 8 7 7 8 7 7 8 9 9 10 10 10 10 11 11 11 11 10 10 10 9 9 9 9 9 8 7 7 6 5 5 5 5 7 7 6
8 7 6 5 4 5 9 9 10 9 7 8 8 8 8 8 7 8 10 10 10 11 11 10 10 10 10 9 9 8 8 8 6 6 5 5 4 5 5 5 5 6 6 5
7 6 5 6 5 7 9 9 9 6 6 8 8 8 8 7 8 9 9 10 10 11 10 10 10 9 9 8 8 7 7 6 5 4 4 4 4 4 5 5 5 5 4 6
5 5 6 6 5 6 9 8 5 7 7 8 7 8 8 8 8 9 9 10 10 10 10 9 9 9 8 8 6 4 4 4 3 3 3 3 3 4 5 5 5 4 6 7
6 6 5 5 7 8 9 8 8 8 7 7 7 8 8 8 8 9 9 10 10 10 9 9 8 8 7 7 4 3 3 3 2 2 3 3 3 4 5 5 4 5 7 7
8 8 7 6 8 8 8 8 5 6 6 7 7 8 8 8 8 9 10 10 10 9 9 8 8 7 5 4 3 3 2 2 2 3 3 3 4 5 5 4 5 7 6 6
8 7 7 7 8 7 8 8 6 6 7 8 8 8 8 8 9 9 9 9 9 8 8 7 7 5 3 2 2 2 2 2 3 3 3 4 4 5 4 5 7 7 7 6
8 7 6 5 7 6 7 7 7 8 8 8 8 8 8 8 9 8 9 8 8 7 7 7 5 3 2 2 2 2 3 4 4 4 4 5 4 4 5 6 6 7 6 6
Height
791 796 815 814 814 813 810 807 801 792 795 796 785 782 772 771 785 790 792 792 794 795 795 796 798 799 797 794 792 791 790 788 784 780 776 774 771 766 764 762 759 756 753 750
794 819 819 814 813 815 810 810 803 801 795 801 785 777 765 777 787 792 794 795 797 797 796 796 798 800 797 794 793 792 791 789 785 782 779 775 772 767 762 758 756 754 751 749
811 826 821 820 822 825 813 825 827 825 806 793 784 771 782 791 794 798 797 797 797 798 798 797 797 797 795 794 795 792 789 788 786 783 778 775 771 768 762 757 753 751 748 745
823 823 825 822 826 831 816 824 824 818 814 809 794 800 769 787 791 796 793 799 800 800 799 797 796 795 794 793 793 792 789 787 785 784 778 775 773 768 764 759 752 747 746 742
831 831 831 829 840 835 829 828 821 814 809 801 785 805 767 779 784 791 799 803 803 802 800 798 796 794 793 790 788 790 788 786 784 782 778 774 772 770 763 758 751 745 741 739
835 833 838 839 832 832 828 819 803 788 801 800 797 807 780 777 799 799 805 804 801 803 800 798 797 794 791 787 787 788 786 783 780 779 776 773 770 766 762 755 749 743 739 735
820 835 837 838 834 822 827 827 810 798 798 787 779 803 784 797 808 810 806 805 806 804 801 799 797 793 790 787 786 784 782 780 778 775 773 770 767 763 758 753 747 741 736 731
839 829 838 840 842 845 835 839 830 844 815 804 802 798 782 796 798 801 806 807 806 804 803 800 797 793 788 784 782 779 777 776 774 770 767 766 764 759 754 749 744 738 732 727
850 833 837 841 845 845 834 836 841 841 823 819 799 782 777 795 798 804 808 806 805 803 802 799 796 792 788 785 782 779 776 773 770 766 762 761 757 753 749 744 739 733 728 722
861 861 842 845 846 844 850 852 847 837 843 835 804 801 798 800 802 805 807 805 804 802 801 798 795 791 788 784 780 777 774 770 766 763 759 754 751 748 744 739 733 728 722 717
870 870 845 843 836 848 850 849 850 847 849 839 826 808 804 809 807 808 809 807 804 802 799 797 793 790 787 783 779 776 772 767 763 760 755 750 747 743 739 734 729 723 717 711
876 876 863 846 846 856 857 857 862 868 862 855 850 833 812 807 809 810 808 806 803 802 799 796 791 788 785 782 778 774 768 764 761 757 752 748 743 739 734 729 724 717 710 704
881 864 861 834 853 854 856 863 864 864 864 863 860 832 814 814 813 812 811 809 806 801 797 793 789 787 784 780 775 771 766 763 759 754 749 745 740 736 731 725 718 711 704 697
889 878 875 869 863 865 875 868 865 864 867 856 845 831 819 817 818 814 812 809 804 800 796 791 789 786 782 778 773 769 764 760 756 750 746 741 736 732 727 721 714 705 697 692
887 886 874 872 873 870 865 860 857 859 852 852 843 833 829 840 826 818 815 813 806 799 793 790 788 784 779 775 771 767 762 757 752 746 741 737 732 727 721 715 707 699 693 685
889 892 880 879 859 857 856 846 841 847 845 845 843 838 850 840 830 823 818 816 806 798 792 790 787 782 777 773 769 764 758 753 748 743 737 732 727 722 717 711 703 696 688 681
897 893 890 875 866 864 845 858 859 860 857 857 855 862 856 845 835 826 820 821 808 801 795 789 784 779 775 771 766 760 754 748 743 738 733 727 722 718 713 707 699 692 685 679
899 898 900 889 875 869 852 863 866 864 861 859 850 861 850 841 833 826 830 821 808 801 794 787 781 776 772 767 761 755 750 743 738 733 729 722 718 714 710 704 698 688 681 676
902 901 907 907 891 876 859 863 870 869 860 860 862 855 845 837 830 818 815 814 808 799 791 785 779 773 767 762 756 750 744 738 733 730 725 720 718 713 710 704 697 687 680 673
904 905 911 909 913 894 863 867 866 868 857 855 852 848 845 838 827 819 815 811 802 796 788 781 775 769 762 757 751 744 738 734 730 726 721 717 713 711 707 701 692 686 681 676
903 909 912 901 901 888 872 872 869 870 865 859 856 847 842 838 834 823 816 807 800 791 784 777 771 765 758 752 745 738 734 729 725 720 716 711 707 705 703 699 692 687 680 676
915 915 903 898 898 885 871 876 884 873 865 859 853 845 840 836 828 820 812 803 794 786 779 773 767 760 753 746 740 734 729 723 718 714 710 705 704 701 699 696 690 683 678 679
909 911 914 913 889 882 876 875 875 868 863 857 851 844 838 832 824 816 807 799 791 784 777 770 763 754 746 741 737 729 723 717 713 709 705 702 701 698 696 693 688 684 683 684
896 898 902 906 885 884 877 874 878 871 865 857 849 841 835 828 821 813 804 797 790 783 775 767 759 749 742 737 729 722 716 710 707 704 701 699 697 696 694 691 687 688 689 689
899 902 896 891 882 882 876 871 871 864 857 850 844 838 832 826 818 810 803 796 789 781 773 765 755 748 738 731 721 713 707 702 701 700 698 698 696 696 694 691 690 692 695 695
898 898 901 896 892 888 877 869 866 857 851 845 839 834 828 823 816 809 802 797 788 780 772 761 754 744 733 724 715 706 700 696 695 697 697 697 697 695 694 694 696 699 700 704
Wind_Speed
6 8 9 12 11 10 11 13 14 12 8 17 11 21 18 8 2 0 1 4 6 8 7 9 13 15 15 16 16 18 19 20 21 21 22 22 22 21 20 20 19 18 18 18
6 10 8 8 6 11 7 13 13 12 15 20 19 26 21 5 3 1 1 7 6 9 10 12 12 15 16 17 16 16 17 19 19 19 21 20 22 23 22 21 20 19 18 19
10 8 9 10 10 15 14 10 16 21 25 22 15 16 8 6 7 5 2 3 8 9 10 11 15 20 20 18 17 17 17 17 18 18 18 19 20 21 21 22 24 23 22 22
7 6 10 6 7 11 11 9 17 19 18 11 17 9 13 10 7 5 7 11 11 11 13 14 19 23 23 19 17 18 17 17 16 15 15 18 19 20 22 23 24 27 26 25
5 8 8 7 7 8 8 18 19 20 18 15 6 5 2 9 9 4 7 11 15 16 16 17 23 27 28 21 16 17 17 16 14 15 16 17 18 20 22 23 25 26 25 24
6 3 5 7 8 3 11 16 24 10 5 7 5 6 11 7 7 8 12 15 17 17 18 22 26 27 28 20 20 19 19 17 16 15 16 17 19 20 23 23 24 23 25 25
1 4 1 7 10 4 15 14 7 5 6 14 2 14 18 11 6 5 17 19 18 21 20 19 20 25 26 17 21 19 20 20 19 18 18 18 19 20 21 24 23 27 25 24
6 3 3 8 5 7 12 6 3 6 8 18 22 8 3 6 2 11 20 16 19 19 18 18 22 23 22 23 25 25 18 20 21 22 20 20 22 21 21 24 27 25 26 26
7 3 3 3 4 4 6 5 6 10 18 14 9 15 5 4 14 21 19 20 20 19 17 16 20 21 22 21 21 20 20 22 24 25 21 22 23 24 24 26 27 25 27 27
4 9 2 3 7 7 6 6 3 4 8 16 11 22 19 21 24 22 21 21 18 19 17 16 18 21 22 21 22 22 24 26 26 25 25 24 25 26 26 26 28 29 30 28
8 3 5 7 5 10 8 8 3 10 10 15 19 12 22 27 20 22 22 20 19 17 16 16 20 22 24 25 25 26 27 26 25 25 27 26 25 25 27 27 28 30 31 29
5 6 7 20 7 3 3 5 7 9 16 16 16 19 21 22 22 19 21 19 17 18 17 15 21 23 25 27 27 26 25 25 24 26 26 25 24 25 27 29 30 32 33 29
9 1 8 1 5 5 7 14 17 16 14 19 16 15 20 23 19 20 18 18 17 18 18 17 20 22 25 26 26 26 26 26 25 26 26 24 26 26 27 28 31 34 32 29
5 6 10 11 18 16 17 21 19 16 12 18 19 25 24 23 21 18 18 19 20 19 19 18 17 22 25 26 27 28 29 28 26 27 27 25 26 26 26 28 31 34 34 29
6 7 12 14 18 20 20 21 20 15 19 18 21 23 19 16 21 19 21 22 23 22 19 18 18 20 26 26 27 30 31 29 27 29 27 25 26 27 27 27 32 33 32 30
7 5 15 14 18 14 23 24 16 11 17 20 25 27 21 21 20 21 22 21 25 21 20 20 22 26 26 28 29 30 31 31 28 28 27 26 28 30 28 29 31 31 31 29
6 6 10 9 16 21 12 10 10 15 16 21 19 13 20 21 22 22 23 17 21 22 23 22 21 25 26 28 30 30 31 32 30 27 29 30 31 29 28 30 30 29 29 29
5 6 5 12 17 6 15 15 14 15 18 22 19 17 22 21 22 24 8 18 23 23 22 21 24 25 27 29 31 31 30 30 28 28 30 32 29 26 27 27 29 30 29 28
3 5 6 4 11 16 3 12 15 18 27 12 18 23 24 24 22 18 18 24 24 24 25 27 29 30 31 31 32 31 30 31 29 30 28 28 28 29 27 27 28 30 28 30
1 4 3 9 7 8 12 18 16 22 20 15 22 23 24 23 16 15 23 25 26 30 28 29 31 31 30 32 32 31 31 27 29 29 28 28 27 23 23 24 29 28 26 28
7 5 6 8 9 12 14 19 20 14 17 24 24 24 22 18 14 24 24 26 33 31 32 32 30 30 31 32 33 30 29 28 28 28 26 26 24 23 21 23 25 25 27 17
3 4 6 6 10 6 24 23 17 20 21 21 23 23 22 22 22 23 24 23 28 29 31 31 30 29 32 34 29 28 26 26 26 26 24 24 20 19 18 20 23 27 7 15
3 3 6 6 9 22 19 20 22 23 21 22 22 22 22 22 23 23 22 23 26 30 30 32 31 32 34 33 31 29 29 29 26 23 22 20 17 17 15 16 20 16 16 20
5 6 6 11 5 20 22 18 18 19 21 20 20 21 20 21 21 22 20 19 24 28 29 31 32 32 33 35 34 32 29 27 22 20 18 15 13 12 13 15 11 9 14 20
7 7 9 15 15 25 19 23 21 21 20 20 22 21 19 20 20 20 18 20 25 28 31 32 32 33 34 37 36 34 31 26 17 14 11 9 10 9 11 8 9 17 13 17
0 8 8 12 19 15 23 24 23 22 21 20 19 19 23 22 18 24 18 25 27 29 31 33 35 35 36 35 33 33 27 20 8 5 5 6 5 5 4 17 24 20 18 22
Wind_Direction
16 56 31 12 14 342 318 312 310 343 347 320 292 291 290 309 299 306 329 1 13 2 10 21 11 359 354 351 355 352 349 346 344 342 340 333 330 324 319 315 306 302 309 309
121 58 16 342 334 327 336 324 348 318 322 318 300 298 290 104 117 99 33 12 0 347 349 8 353 340 343 339 348 344 345 343 344 343 335 332 328 324 319 316 316 310 305 305
46 32 351 342 15 354 340 359 338 315 315 296 309 298 115 111 142 143 127 357 359 358 342 339 336 335 332 332 337 338 343 342 340 340 337 334 330 327 324 325 318 316 312 305
57 26 358 33 42 355 327 349 312 303 320 321 321 292 323 149 164 200 33 12 354 350 331 331 327 331 327 321 327 329 335 336 338 342 343 342 336 331 327 322 316 311 305 303
75 13 11 31 4 342 326 319 297 287 284 295 279 260 149 172 181 83 22 1 346 338 339 331 323 318 317 308 316 317 321 323 324 328 332 332 328 324 324 323 320 315 306 300
68 64 36 0 307 258 298 317 296 274 257 256 91 322 290 344 24 7 358 334 344 336 331 329 327 322 317 319 318 312 310 314 316 314 316 320 320 321 319 321 319 318 311 302
319 76 105 354 326 280 343 345 333 323 274 297 40 326 284 71 61 12 351 344 343 336 332 332 327 324 319 308 311 302 304 305 313 312 311 311 311 312 312 315 315 313 310 300
331 246 1 11 358 311 313 350 309 296 299 302 312 270 10 111 20 347 347 338 333 333 334 336 333 326 323 316 307 310 301 306 307 308 309 308 304 304 310 309 311 308 306 299
330 306 166 316 316 321 15 310 344 283 272 278 269 280 333 107 350 346 345 334 333 332 332 336 338 343 340 332 330 323 315 308 308 307 304 298 299 305 307 308 308 307 306 300
31 295 81 338 290 212 267 356 308 274 309 306 297 306 301 341 334 343 330 328 333 328 327 331 332 334 331 329 328 328 323 317 317 317 309 301 302 304 307 307 309 310 305 302
330 228 312 277 338 335 306 296 238 299 286 290 304 294 335 315 338 330 327 325 329 326 325 327 329 331 329 327 325 322 317 316 319 319 315 308 303 304 306 307 309 308 307 305
21 309 296 295 47 40 317 331 310 306 301 295 291 287 298 327 333 326 329 329 335 331 326 323 322 328 330 328 326 324 325 323 320 316 313 312 308 305 307 307 308 311 310 306
0 256 307 99 155 169 325 323 306 302 298 283 288 290 312 317 327 327 337 334 328 325 327 322 325 327 326 327 325 326 326 324 323 316 312 313 310 310 309 307 308 311 309 308
276 263 267 277 298 316 307 301 300 297 289 294 287 296 307 312 321 328 325 329 329 326 323 328 330 325 323 325 324 324 323 323 319 313 315 314 313 310 308 308 309 308 311 308
357 277 294 306 305 295 294 294 298 296 291 286 294 315 339 343 329 331 327 331 326 321 321 329 327 324 323 323 325 324 322 319 317 311 312 314 313 309 308 309 309 309 311 308
334 290 317 307 292 322 305 300 302 315 321 312 316 305 348 341 332 327 330 327 315 329 328 329 324 322 322 323 322 320 316 316 315 309 308 311 315 313 315 313 308 311 310 312
308 316 320 292 329 310 294 6 325 319 326 319 314 340 328 332 318 326 320 321 321 329 323 319 319 318 321 320 319 317 314 314 310 304 304 308 312 315 317 312 312 311 312 313
302 312 296 302 316 316 347 22 3 335 322 322 309 328 328 326 324 315 40 307 329 324 320 320 317 316 315 313 313 313 313 310 308 305 304 306 314 318 316 318 316 313 315 314
275 316 320 292 321 302 81 20 344 337 320 13 348 327 325 325 322 318 344 333 322 318 318 317 317 315 315 312 314 313 310 303 314 319 317 316 315 313 313 312 309 311 315 319
219 265 254 319 297 295 330 348 349 324 302 337 341 330 323 322 316 321 327 321 319 318 316 319 318 314 311 312 313 310 303 313 307 306 304 304 300 299 302 304 305 308 316 314
319 319 282 292 297 286 327 346 330 306 329 329 318 318 319 315 307 308 312 315 317 317 323 320 319 315 313 314 310 307 311 307 302 299 299 294 291 298 298 299 300 308 310 329
307 322 288 310 293 290 356 333 331 311 313 313 312 316 314 310 308 307 312 314 314 323 323 322 320 317 315 311 315 311 305 303 303 301 300 292 294 291 297 298 305 311 313 99
285 250 295 289 298 309 307 322 321 319 318 314 313 316 312 310 306 310 312 314 320 321 322 323 319 316 311 322 321 310 309 305 301 297 291 292 290 290 296 303 312 338 101 104
305 342 276 309 277 305 330 324 327 324 319 311 306 311 313 309 308 308 314 318 320 324 322 322 320 316 321 319 316 309 307 301 293 286 281 286 287 292 300 309 318 107 114 112
296 319 298 292 318 326 317 326 329 316 311 310 313 313 312 311 310 313 318 320 325 322 326 325 317 322 316 318 314 312 307 299 282 273 270 273 275 294 306 325 107 114 113 124
341 330 319 307 316 310 310 316 317 316 324 318 314 315 316 317 317 322 320 325 326 330 326 323 326 321 318 317 313 313 318 312 262 240 239 249 271 293 339 97 90 103 107 115